Location: Vado de Villarta
(40.1333°N, 4.4500°W)
Time: 07:40:58
(UTC+00:00)

SL-8 R/B - Pass Details

Date: 08 August 2025
Orbit: 646 x 657 km, 48.4° (Epoch: 07 December)

Event Time Altitude Azimuth Distance (km) Brightness Sun altitude
Rises 20:59:49 0° 238° (WSW) 2,954 7.3 -16.7°
Reaches altitude 10° 21:02:09 10° 238° (WSW) 2,044 6.4 -17.1°
Maximum altitude 21:06:52 89° 324° (NW) 652 3.6 -17.8°
Drops below altitude 10° 21:11:36 10° 59° (ENE) 2,046 6.0 -18.4°
Sets 21:13:56 0° 60° (ENE) 2,958 6.9 -18.8°
Enters shadow 21:13:57 - 60° (ENE) 2,962 6.9 -18.8°
